SL-14 DEB, 47092

Orbit data source: Space-Track

SL-14 DEB, 47092 is space debris in LEO originally from a launch on Thu, 15 Aug 1991 UTC launched from the Plesetsk Missile And Space Complex (PKMTR). Debris objects in space refer to the collection of defunct objects orbiting the Earth. Examples of debris include non-operational satellites, rocket bodies, and fragments generated from explosions, collisions, or faulty payload assembly.

Loading next visibility...
Identifier
47092, 1991-056DS
Orbit
LEO
Country
Flag of CISCIS
Related business
Manufacturer
Unknown
Mission
Spacecraft
Bus & Motor
Unknown
Mass
Unknown
Launch date (UTC)
1991-08-15 (34 years ago)
Launch vehicle
Unknown
Launch site
Plesetsk Missile And Space Complex (PKMTR)
Object type
Payload
Rocket body
Debris
Shape & HBR
Unknown shape, 0.1 m
Radar Cross Section
Small (<0.1 m²)

Expand to show TLE details & history
Last TLE update: 1 day ago

TLE from 1 day ago
0 SL-14 DEB
1 47092U 91056DS  25286.34817788  .00001755  00000-0  30598-2 0  9997
2 47092  82.5646 261.7360 0093403 118.2101 242.8506 13.41248359241232
Epoch: 2025-10-13T08:21Z
TLE epoch observation values (Epoch: 2025-10-13T08:21:22.568Z)
Latitude
-0.00005°
Longitude
114.23971°
Altitude
1,139.887 km
Speed
7.267 km/s
True Right ascension
17h 26m 56s
True Declination
0° 00' 00"
Sunlit
Object was in daylight at epoch
Visualization orbit readout
Latitude
Unknown
Longitude
Unknown
Altitude
Unknown
Speed
Unknown
Apparent Right ascension
Unknown
Apparent Declination
Unknown
Sunlit
N/A
Visualization observer readout
Local Sidereal Time
09:57:37
Azimuth
Unknown
Elevation
Unknown
Doppler factor
Unknown
Orbital elements
Apogee altitude
1,171.708 km
Perigee altitude
1,031.977 km
Semi-major axis
7,479.98 km
Eccentricity
0.00934
Inclination
82.5646°
RAAN
261.736°
Arg. of periapsis
118.2101°
True anomaly
241.9033°
Mean anomaly
242.8506°
Eccentric anomaly
242.37644°
Mean motion
3.355 °/min
Orbital period
107.3 mins
BSTAR
0.0030598
Loading maneuver chart data...
Computing Atmospheric mass density...
Loading historical data...
Loading historical data...
Loading historical data...
Loading historical data...
Loading historical data...
Loading historical data...
Loading historical data...

Documentation

Showing up to 5 results
|